N761RV KAUS-KAUS

Flight info

Callsign N761RV
Flight time 0h 44m
Altitude 2996
Route KEDC
Aircraft C208/L-VGD/C

Departure

Time 2026-05-03 22:27
Airport Austin Bergstrom International Airport (KAUS)

Arrival

Time 2026-05-03 23:11
Airport Austin Bergstrom International Airport (KAUS)
Time Latitude Longitude Altitude Speed Heading
2026-05-03 22:11 30.18247 -97.66102 484 ft 0 kts 179°
2026-05-03 22:18 30.18244 -97.66093 483 ft 4 kts 55°
2026-05-03 22:19 30.18288 -97.66094 484 ft 7 kts 357°
2026-05-03 22:19 30.18353 -97.66097 484 ft 10 kts 358°
2026-05-03 22:19 30.18429 -97.66099 485 ft 12 kts 359°
2026-05-03 22:19 30.18507 -97.66088 486 ft 12 kts 60°
2026-05-03 22:20 30.18513 -97.65995 485 ft 11 kts 87°
2026-05-03 22:20 30.18516 -97.65923 484 ft 10 kts 87°
2026-05-03 22:20 30.18562 -97.65869 484 ft 11 kts 359°
2026-05-03 22:20 30.18639 -97.65871 486 ft 11 kts 358°
2026-05-03 22:21 30.18728 -97.65873 481 ft 13 kts 359°
2026-05-03 22:21 30.18819 -97.65877 490 ft 13 kts 358°
2026-05-03 22:21 30.18908 -97.65879 493 ft 13 kts 358°
2026-05-03 22:21 30.19004 -97.65881 494 ft 14 kts 359°
2026-05-03 22:22 30.19107 -97.65883 486 ft 15 kts 359°
2026-05-03 22:22 30.19214 -97.65885 495 ft 15 kts 358°
2026-05-03 22:22 30.19321 -97.65889 495 ft 16 kts 359°
2026-05-03 22:22 30.19433 -97.65892 486 ft 16 kts 358°
2026-05-03 22:23 30.19546 -97.65895 492 ft 16 kts 360°
2026-05-03 22:23 30.19651 -97.65897 492 ft 14 kts 359°
2026-05-03 22:23 30.19749 -97.65900 487 ft 14 kts 359°
2026-05-03 22:23 30.19841 -97.65903 492 ft 13 kts 359°
2026-05-03 22:24 30.19933 -97.65905 492 ft 13 kts 358°
2026-05-03 22:24 30.20043 -97.65908 491 ft 20 kts 358°
2026-05-03 22:24 30.20179 -97.65911 492 ft 14 kts 358°
2026-05-03 22:24 30.20285 -97.65913 499 ft 17 kts 358°
2026-05-03 22:25 30.20360 -97.65903 500 ft 7 kts 47°
2026-05-03 22:25 30.20370 -97.65854 502 ft 7 kts 86°
2026-05-03 22:25 30.20360 -97.65790 502 ft 9 kts 155°
2026-05-03 22:25 30.20345 -97.65789 502 ft 0 kts 177°
2026-05-03 22:26 30.20107 -97.65783 494 ft 67 kts 179°
2026-05-03 22:26 30.19532 -97.65766 654 ft 90 kts 178°
2026-05-03 22:26 30.18841 -97.65740 897 ft 107 kts 178°
2026-05-03 22:26 30.18061 -97.65756 1091 ft 114 kts 190°
2026-05-03 22:27 30.17427 -97.66254 1446 ft 114 kts 238°
2026-05-03 22:27 30.17088 -97.67087 1768 ft 119 kts 242°
2026-05-03 22:27 30.16727 -97.67957 2085 ft 121 kts 239°
2026-05-03 22:27 30.16355 -97.68826 2435 ft 119 kts 241°
2026-05-03 22:28 30.15995 -97.69675 2724 ft 119 kts 240°
2026-05-03 22:28 30.15630 -97.70553 2961 ft 123 kts 242°
2026-05-03 22:28 30.15235 -97.71440 3067 ft 129 kts 239°
2026-05-03 22:28 30.14942 -97.72440 3114 ft 135 kts 266°
2026-05-03 22:29 30.15177 -97.73521 3102 ft 143 kts 296°
2026-05-03 22:29 30.15888 -97.74317 3105 ft 148 kts 338°
2026-05-03 22:29 30.16900 -97.74461 3091 ft 144 kts
2026-05-03 22:29 30.17898 -97.74444 3116 ft 143 kts
2026-05-03 22:30 30.18873 -97.74380 3154 ft 143 kts
2026-05-03 22:30 30.19868 -97.74477 3166 ft 145 kts 348°
2026-05-03 22:30 30.20871 -97.74695 3103 ft 146 kts 350°
2026-05-03 22:30 30.21867 -97.74913 3116 ft 146 kts 349°
2026-05-03 22:31 30.22873 -97.75134 3105 ft 147 kts 349°
2026-05-03 22:31 30.23875 -97.75359 3133 ft 145 kts 349°
2026-05-03 22:31 30.24861 -97.75582 3159 ft 143 kts 349°
2026-05-03 22:31 30.25859 -97.75801 3121 ft 147 kts 350°
2026-05-03 22:32 30.26876 -97.75988 3110 ft 149 kts 354°
2026-05-03 22:32 30.27910 -97.76120 3112 ft 150 kts 355°
2026-05-03 22:32 30.28934 -97.76241 3093 ft 149 kts 354°
2026-05-03 22:32 30.29958 -97.76353 3111 ft 147 kts 356°
2026-05-03 22:33 30.30970 -97.76513 3143 ft 147 kts 349°
2026-05-03 22:33 30.31981 -97.76765 3095 ft 150 kts 348°
2026-05-03 22:33 30.32995 -97.77017 3065 ft 148 kts 351°
2026-05-03 22:33 30.34004 -97.77190 3099 ft 143 kts 353°
2026-05-03 22:34 30.34990 -97.77365 3154 ft 143 kts 352°
2026-05-03 22:34 30.35987 -97.77543 3107 ft 145 kts 352°
2026-05-03 22:34 30.36976 -97.77712 3122 ft 142 kts 352°
2026-05-03 22:34 30.37934 -97.77853 3248 ft 137 kts 353°
2026-05-03 22:35 30.38861 -97.78006 3363 ft 137 kts 352°
2026-05-03 22:35 30.39797 -97.78197 3400 ft 140 kts 350°
2026-05-03 22:35 30.40773 -97.78404 3332 ft 143 kts 351°
2026-05-03 22:35 30.41740 -97.78599 3274 ft 137 kts 351°
2026-05-03 22:36 30.42369 -97.78724 3290 ft 136 kts 352°
2026-05-03 22:36 30.43612 -97.78961 3266 ft 137 kts 352°
2026-05-03 22:36 30.44233 -97.79071 3198 ft 136 kts 352°
2026-05-03 22:36 30.45173 -97.79225 3061 ft 137 kts 352°
2026-05-03 22:37 30.46112 -97.79285 2959 ft 133 kts 16°
2026-05-03 22:37 30.46852 -97.78689 2845 ft 131 kts 46°
2026-05-03 22:37 30.47499 -97.77938 2744 ft 131 kts 46°
2026-05-03 22:37 30.48143 -97.77212 2719 ft 128 kts 45°
2026-05-03 22:38 30.48776 -97.76486 2717 ft 127 kts 46°
2026-05-03 22:38 30.49413 -97.75758 2737 ft 129 kts 45°
2026-05-03 22:38 30.50057 -97.75052 2721 ft 128 kts 41°
2026-05-03 22:38 30.50738 -97.74397 2696 ft 126 kts 40°
2026-05-03 22:39 30.51407 -97.73754 2721 ft 124 kts 41°
2026-05-03 22:39 30.51826 -97.72931 2730 ft 122 kts 92°
2026-05-03 22:39 30.51473 -97.72064 2711 ft 120 kts 129°
2026-05-03 22:39 30.50929 -97.71320 2738 ft 123 kts 128°
2026-05-03 22:40 30.50392 -97.70547 2731 ft 123 kts 127°
2026-05-03 22:40 30.49849 -97.69783 2727 ft 121 kts 127°
2026-05-03 22:40 30.49313 -97.69026 2711 ft 122 kts 132°
2026-05-03 22:40 30.48744 -97.68309 2703 ft 123 kts 131°
2026-05-03 22:41 30.48186 -97.67588 2710 ft 117 kts 131°
2026-05-03 22:41 30.47651 -97.66891 2705 ft 114 kts 130°
2026-05-03 22:41 30.47140 -97.66172 2556 ft 114 kts 127°
2026-05-03 22:41 30.46645 -97.65496 2387 ft 105 kts 131°
2026-05-03 22:42 30.46167 -97.64901 2279 ft 97 kts 132°
2026-05-03 22:42 30.45707 -97.64342 2178 ft 95 kts 132°
2026-05-03 22:42 30.45274 -97.63795 2060 ft 88 kts 129°
2026-05-03 22:42 30.44889 -97.63261 1912 ft 85 kts 128°
2026-05-03 22:43 30.44501 -97.62754 1806 ft 84 kts 130°
2026-05-03 22:43 30.44110 -97.62230 1703 ft 89 kts 129°
2026-05-03 22:43 30.43703 -97.61699 1608 ft 87 kts 130°
2026-05-03 22:43 30.43308 -97.61174 1479 ft 85 kts 131°
2026-05-03 22:44 30.42915 -97.60677 1375 ft 82 kts 132°
2026-05-03 22:44 30.42535 -97.60184 1295 ft 82 kts 133°
2026-05-03 22:44 30.42167 -97.59683 1192 ft 80 kts 135°
2026-05-03 22:44 30.41788 -97.59226 1108 ft 79 kts 137°
2026-05-03 22:45 30.41437 -97.58748 1066 ft 77 kts 139°
2026-05-03 22:45 30.41003 -97.58268 1229 ft 97 kts 138°
2026-05-03 22:45 30.40513 -97.57649 1511 ft 112 kts 131°
2026-05-03 22:45 30.39990 -97.56950 1871 ft 117 kts 128°
2026-05-03 22:46 30.39446 -97.56242 2226 ft 120 kts 130°
2026-05-03 22:46 30.38856 -97.55537 2385 ft 126 kts 133°
2026-05-03 22:46 30.38245 -97.54780 2384 ft 131 kts 130°
2026-05-03 22:46 30.37632 -97.53979 2353 ft 133 kts 130°
2026-05-03 22:47 30.37030 -97.53159 2356 ft 134 kts 128°
2026-05-03 22:47 30.36433 -97.52345 2398 ft 132 kts 128°
2026-05-03 22:47 30.35840 -97.51535 2406 ft 134 kts 129°
2026-05-03 22:47 30.35219 -97.50719 2369 ft 137 kts 129°
2026-05-03 22:48 30.34583 -97.49894 2367 ft 138 kts 129°
2026-05-03 22:48 30.33953 -97.49055 2364 ft 138 kts 129°
2026-05-03 22:48 30.33328 -97.48224 2395 ft 136 kts 130°
2026-05-03 22:48 30.32704 -97.47416 2380 ft 134 kts 128°
2026-05-03 22:49 30.32106 -97.46614 2376 ft 131 kts 127°
2026-05-03 22:49 30.31511 -97.45836 2395 ft 128 kts 129°
2026-05-03 22:49 30.30934 -97.45043 2380 ft 133 kts 128°
2026-05-03 22:49 30.30344 -97.44204 2354 ft 135 kts 126°
2026-05-03 22:50 30.29760 -97.43346 2364 ft 137 kts 128°
2026-05-03 22:50 30.29137 -97.42523 2322 ft 135 kts 129°
2026-05-03 22:50 30.28502 -97.41715 2341 ft 136 kts 129°
2026-05-03 22:50 30.27870 -97.40910 2375 ft 135 kts 129°
2026-05-03 22:51 30.27236 -97.40095 2395 ft 136 kts 129°
2026-05-03 22:51 30.26597 -97.39274 2366 ft 136 kts 130°
2026-05-03 22:51 30.25965 -97.38479 2351 ft 133 kts 128°
2026-05-03 22:51 30.25369 -97.37678 2425 ft 132 kts 116°
2026-05-03 22:52 30.25269 -97.36651 2393 ft 132 kts 74°
2026-05-03 22:52 30.25799 -97.35844 2385 ft 128 kts 28°
2026-05-03 22:52 30.26659 -97.35734 2466 ft 128 kts 346°
2026-05-03 22:52 30.27390 -97.36373 2379 ft 139 kts 303°
2026-05-03 22:53 30.27579 -97.37482 2258 ft 144 kts 276°
2026-05-03 22:53 30.27678 -97.38592 2333 ft 138 kts 278°
2026-05-03 22:53 30.27753 -97.39705 2372 ft 140 kts 275°
2026-05-03 22:53 30.27914 -97.40780 2418 ft 137 kts 302°
2026-05-03 22:54 30.28674 -97.41357 2379 ft 134 kts 354°
2026-05-03 22:54 30.29487 -97.41000 2355 ft 127 kts 49°
2026-05-03 22:54 30.29687 -97.40008 2357 ft 136 kts 96°
2026-05-03 22:54 30.29311 -97.38994 2350 ft 140 kts 118°
2026-05-03 22:55 30.28759 -97.38073 2353 ft 138 kts 131°
2026-05-03 22:55 30.28101 -97.37273 2419 ft 138 kts 127°
2026-05-03 22:55 30.27473 -97.36420 2426 ft 141 kts 125°
2026-05-03 22:55 30.26854 -97.35533 2416 ft 141 kts 126°
2026-05-03 22:56 30.26252 -97.34660 2385 ft 139 kts 123°
2026-05-03 22:56 30.25673 -97.33766 2394 ft 139 kts 123°
2026-05-03 22:56 30.25015 -97.32932 2416 ft 144 kts 144°
2026-05-03 22:56 30.24029 -97.32744 2392 ft 150 kts 195°
2026-05-03 22:57 30.23185 -97.33419 2391 ft 148 kts 237°
2026-05-03 22:57 30.22999 -97.34541 2301 ft 142 kts 286°
2026-05-03 22:57 30.23487 -97.35473 2346 ft 135 kts 315°
2026-05-03 22:57 30.24123 -97.36259 2345 ft 133 kts 319°
2026-05-03 22:58 30.24788 -97.36982 2324 ft 128 kts 319°
2026-05-03 22:58 30.25371 -97.37716 2344 ft 125 kts 314°
2026-05-03 22:58 30.25920 -97.38518 2415 ft 129 kts 310°
2026-05-03 22:58 30.26459 -97.39361 2379 ft 131 kts 309°
2026-05-03 22:59 30.26990 -97.40235 2366 ft 133 kts 306°
2026-05-03 22:59 30.27518 -97.41100 2530 ft 129 kts 310°
2026-05-03 22:59 30.28072 -97.41919 2699 ft 128 kts 312°
2026-05-03 22:59 30.28635 -97.42751 2724 ft 136 kts 310°
2026-05-03 23:00 30.29218 -97.43617 2705 ft 135 kts 311°
2026-05-03 23:00 30.29763 -97.44489 2682 ft 134 kts 310°
2026-05-03 23:00 30.30300 -97.45339 2673 ft 132 kts 311°
2026-05-03 23:00 30.30843 -97.46191 2678 ft 130 kts 309°
2026-05-03 23:01 30.31352 -97.47057 2684 ft 129 kts 306°
2026-05-03 23:01 30.31861 -97.47889 2801 ft 123 kts 309°
2026-05-03 23:01 30.32360 -97.48723 2646 ft 128 kts 307°
2026-05-03 23:01 30.32841 -97.49603 2550 ft 128 kts 305°
2026-05-03 23:02 30.33291 -97.50497 2560 ft 130 kts 302°
2026-05-03 23:02 30.33753 -97.51398 2569 ft 130 kts 308°
2026-05-03 23:02 30.34267 -97.52259 2547 ft 130 kts 308°
2026-05-03 23:02 30.34579 -97.53240 2538 ft 134 kts 276°
2026-05-03 23:03 30.34607 -97.54315 2517 ft 132 kts 277°
2026-05-03 23:03 30.34640 -97.55354 2496 ft 131 kts 276°
2026-05-03 23:03 30.34678 -97.56414 2509 ft 132 kts 275°
2026-05-03 23:03 30.34721 -97.57472 2482 ft 130 kts 276°
2026-05-03 23:04 30.34741 -97.58519 2533 ft 129 kts 275°
2026-05-03 23:04 30.34773 -97.59553 2534 ft 128 kts 276°
2026-05-03 23:04 30.34786 -97.60594 2522 ft 130 kts 275°
2026-05-03 23:04 30.34811 -97.61634 2435 ft 131 kts 276°
2026-05-03 23:05 30.34858 -97.62657 2485 ft 125 kts 276°
2026-05-03 23:05 30.34852 -97.63667 2533 ft 125 kts 265°
2026-05-03 23:05 30.34491 -97.64583 2539 ft 128 kts 229°
2026-05-03 23:05 30.33806 -97.65247 2606 ft 130 kts 217°
2026-05-03 23:06 30.33057 -97.65862 2559 ft 133 kts 215°
2026-05-03 23:06 30.32220 -97.66202 2509 ft 131 kts 177°
2026-05-03 23:06 30.31326 -97.66161 2502 ft 128 kts 173°
2026-05-03 23:06 30.30457 -97.66076 2345 ft 125 kts 172°
2026-05-03 23:07 30.29607 -97.66050 2207 ft 120 kts 179°
2026-05-03 23:07 30.28783 -97.66026 2067 ft 114 kts 177°
2026-05-03 23:07 30.28002 -97.65999 1959 ft 113 kts 177°
2026-05-03 23:07 30.27227 -97.65992 1864 ft 103 kts 175°
2026-05-03 23:08 30.26531 -97.65962 1711 ft 98 kts 175°
2026-05-03 23:08 30.25835 -97.65940 1571 ft 101 kts 173°
2026-05-03 23:08 30.25135 -97.65915 1418 ft 100 kts 179°
2026-05-03 23:08 30.24472 -97.65910 1253 ft 91 kts 175°
2026-05-03 23:09 30.23873 -97.65906 1161 ft 83 kts 177°
2026-05-03 23:09 30.23312 -97.65894 1081 ft 78 kts 174°
2026-05-03 23:09 30.22765 -97.65860 1016 ft 80 kts 177°
2026-05-03 23:09 30.22197 -97.65859 867 ft 81 kts 174°
2026-05-03 23:10 30.21641 -97.65832 785 ft 81 kts 178°
2026-05-03 23:10 30.21090 -97.65822 699 ft 77 kts 174°
2026-05-03 23:10 30.20540 -97.65796 588 ft 80 kts 175°
2026-05-03 23:10 30.19998 -97.65780 497 ft 73 kts 176°
2026-05-03 23:11 30.19551 -97.65769 494 ft 56 kts 179°
2026-05-03 23:11 30.19286 -97.65761 494 ft 25 kts 176°
2026-05-03 23:11 30.19091 -97.65757 497 ft 33 kts 179°
2026-05-03 23:11 30.18871 -97.65751 488 ft 24 kts 179°
2026-05-03 23:12 30.18715 -97.65752 489 ft 22 kts 185°
2026-05-03 23:12 30.18565 -97.65803 483 ft 19 kts 212°
2026-05-03 23:12 30.18520 -97.65890 484 ft 13 kts 260°
2026-05-03 23:12 30.18515 -97.66033 485 ft 14 kts 271°
2026-05-03 23:13 30.18503 -97.66106 484 ft 8 kts 224°
2026-05-03 23:13 30.18457 -97.66123 482 ft 5 kts 180°
2026-05-03 23:13 30.18436 -97.66123 486 ft 0 kts 176°